Location: *
(32.8140°S, 174.6161°E)
Time: 00:04:23
(UTC+00:00)

Centaur AC-119 - Pass Details

Date: 10 December 2019
Orbit: 224 x 14270 km, 26.8° (Epoch: 17 January)

Event Time Altitude Azimuth Distance (km) Brightness Sun altitude
Exits shadow 14:41:52 23° 47° (NE) 1,363 4.2 -24.1°
Drops below altitude 10° 14:46:24 10° 84° (E) 3,240 6.6 -23.5°
Sets 14:52:39 0° 93° (E) 5,961 8.2 -22.7°
